Sherbrooke, Quebec

6:09 AM EDT on March 25, 2017 (GMT -0400)
Sherbrooke

Weather History for CYSC - May, 2012

Change the Weather History Date:

Monday, May 7, 2012

  Actual Average Record
Temperature  
Mean Temperature 48 °F -  
Max Temperature 68 °F 59 °F 81 °F (2013)
Min Temperature 27 °F 37 °F 27 °F (2012)
Degree Days  
Heating Degree Days 18    
Moisture  
Dew Point 24 °F    
Average Humidity 43    
Maximum Humidity 93    
Minimum Humidity 6    
Precipitation  
Precipitation 0.00 in - - ()
Sea Level Pressure  
Sea Level Pressure 30.10 in    
Wind  
Wind Speed 3 mph ()    
Max Wind Speed 9 mph    
Max Gust Speed -    
Visibility 9.3 miles    
Events      
Averages and records for this station are not official NWS values.
T = Trace of Precipitation, MM = Missing Value Source: Averaged Metar Reports

Daily Weather History Graph

Daily Weather History Graph

Search for Another Location

Airport or City:

Trip Planner

Search our weather history database for the weather conditions in past years. The results will help you decide how hot, cold, wet, or windy it might be!

Date:

Astronomy

May. 07, 2012 Rise Set
Actual Time 5:25 AM EDT 8:01 PM EDT
Civil Twilight 4:52 AM EDT 8:35 PM EDT
Nautical Twilight 4:10 AM EDT 9:17 PM EDT
Astronomical Twilight 3:21 AM EDT 10:06 PM EDT
Moon 10:14 PM EDT (5/7) 6:24 AM EDT (5/7)
Length of Visible Light 15h 42m
Length of Day
14h 35m
Waning Gibbous, 97% of the Moon is Illuminated
May 7
Waning Gibbous
May 12
Last Quarter
May 20
New
May 28
First Quarter
Jun 4
Full

Hourly Weather History & Observations

Time (EDT) Temp. Windchill Dew Point Humidity Pressure Visibility Wind Dir Wind Speed Gust Speed Precip Events Conditions
1:00 AM 35.6 °F 31.7 °F 28.4 °F 75% 30.14 in 9.0 mi East 4.6 mph - N/A   Clear
2:00 AM 32 °F - 28 °F 79% 30.14 in 10 mi East 3.5 mph - -  
2:00 AM 32.0 °F - 28.4 °F 87% 30.14 in 9.0 mi ESE 2.3 mph - N/A   Clear
3:00 AM 30.2 °F - 28.4 °F 93% 30.15 in 9.0 mi East 2.3 mph - N/A   Clear
4:00 AM 30.2 °F 25.4 °F 26.6 °F 86% 30.15 in 9.0 mi East 4.6 mph - N/A   Clear
5:00 AM 30 °F - 26 °F 79% 30.15 in 10 mi East 4.6 mph - -  
5:00 AM 30.2 °F 24.3 °F 26.6 °F 86% 30.15 in 9.0 mi East 5.8 mph - N/A   Clear
6:00 AM 28.4 °F - 26.6 °F 93% 30.18 in 9.0 mi Calm Calm - N/A   Clear
7:00 AM 33.8 °F 30.8 °F 28.4 °F 81% 30.18 in 9.0 mi ESE 3.5 mph - N/A   Clear
8:00 AM 40 °F - 29 °F 52% 30.18 in 10 mi ENE 1.2 mph - -  
8:00 AM 41.0 °F - 28.4 °F 61% 30.18 in 9.0 mi Calm Calm - N/A   Clear
9:00 AM 50.0 °F - 28.4 °F 43% 30.17 in 9.0 mi Variable 2.3 mph - N/A   Clear
10:00 AM 55.4 °F - 24.8 °F 31% 30.18 in 9.0 mi West 3.5 mph - N/A   Clear
11:00 AM 60 °F - 18 °F 10% 30.17 in 10 mi East 3.5 mph - -  
11:00 AM 60.8 °F - 17.6 °F 19% 30.17 in 9.0 mi Variable 4.6 mph - N/A   Clear
12:00 PM 62.6 °F - 21.2 °F 20% 30.16 in 9.0 mi Variable 6.9 mph - N/A   Clear
1:00 PM 64.4 °F - 17.6 °F 16% 30.13 in 9.0 mi Variable 4.6 mph - N/A   Clear
2:00 PM 65 °F - 18 °F 8% 30.11 in 10 mi North 3.5 mph - -  
2:00 PM 66.2 °F - 17.6 °F 15% 30.10 in 9.0 mi Variable 3.5 mph - N/A   Clear
3:00 PM 66.2 °F - 15.8 °F 14% 30.08 in 9.0 mi Variable 8.1 mph - N/A   Clear
4:00 PM 68.0 °F - 15.8 °F 13% 30.06 in 9.0 mi NE 3.5 mph - N/A   Clear
5:00 PM 68 °F - 16 °F 6% 30.04 in 10 mi East 4.6 mph - -  
5:00 PM 68.0 °F - 15.8 °F 13% 30.04 in 9.0 mi East 5.8 mph - N/A   Clear
6:00 PM 68.0 °F - 15.8 °F 13% 30.03 in 9.0 mi Calm Calm - N/A   Clear
7:00 PM 66.2 °F - 17.6 °F 15% 30.02 in 9.0 mi North 3.5 mph - N/A   Clear
8:00 PM 58 °F - 27 °F 18% 30.01 in 10 mi NNW 1.2 mph - -  
8:00 PM 57.2 °F - 26.6 °F 31% 30.01 in 9.0 mi Calm Calm - N/A   Clear
9:00 PM 53.6 °F - 21.2 °F 28% 30.00 in 9.0 mi East 2.3 mph - N/A   Clear
10:00 PM 48.2 °F - 33.8 °F 58% 29.99 in 9.0 mi East 5.8 mph - N/A   Clear
11:00 PM 49 °F - 31 °F 37% 29.99 in 10 mi East 9.2 mph - -  
11:00 PM 48.2 °F - 30.2 °F 50% 29.99 in 9.0 mi East 9.2 mph - N/A   Clear